RH
78 67 39 20 15 10 8 9 9 9 9 10 11 11 12 13 12 11 11 11 11 10 11 11 11 11 11 11 12 14 14 13 13 12 12 11 11 10 11 12 13 14 15 17 18 20 22 23 25 27 30 32 35 41 47 54 60 65 69 71 71 72 73 73 72 68 64 60 56 55 53 51 51 50 48 46 46 44 40 36 33 32 32 31 30 29
74 57 31 20 15 11 12 12 11 12 12 12 13 13 14 14 13 13 12 11 12 12 12 12 12 12 12 11 12 13 12 12 11 11 10 11 10 11 12 14 15 17 19 22 24 26 28 30 31 32 34 37 43 50 56 62 69 74 76 76 75 73 71 68 63 57 54 52 50 48 48 47 48 49 49 49 52 52 49 45 40 36 34 33 32 33
50 34 20 17 16 15 15 14 13 14 13 13 14 15 15 14 13 13 13 12 12 12 12 12 12 13 12 11 11 11 11 10 10 10 10 11 12 13 15 17 19 22 25 28 32 34 35 35 36 37 41 46 51 57 63 70 74 75 73 70 68 66 64 61 56 53 53 53 52 50 48 47 47 49 51 52 55 59 60 59 56 53 50 49 49 51
40 32 28 26 22 19 16 13 14 13 13 14 14 14 14 13 13 13 13 13 12 12 12 12 12 12 11 10 10 10 10 10 10 11 12 14 16 18 20 22 24 27 31 35 37 39 39 40 42 46 50 54 56 59 62 65 66 65 62 59 61 64 65 64 61 57 55 53 52 50 50 50 51 54 57 59 62 64 65 66 66 65 64 62 61 60
43 39 34 27 20 16 14 13 13 14 15 15 14 14 14 13 13 13 13 12 12 12 11 11 11 10 10 10 10 10 10 11 12 14 16 18 20 22 24 27 29 33 37 40 41 42 43 45 47 50 52 52 52 53 55 57 57 58 58 60 64 67 68 66 64 61 59 58 59 60 61 60 60 59 59 59 59 59 59 59 58 58 59 57 55 53
29 26 22 18 15 14 15 15 15 16 16 15 14 13 13 13 13 12 12 12 11 11 11 11 11 11 10 10 10 11 12 13 15 17 19 21 23 26 29 32 36 39 41 43 43 44 45 46 47 47 46 45 46 49 53 55 56 57 59 60 61 64 68 70 70 69 68 67 65 63 59 56 54 53 54 54 53 52 52 52 53 55 56 55 53 51
20 19 18 18 19 19 18 17 16 15 15 14 13 13 13 12 12 12 11 11 11 10 10 11 13 13 12 12 12 13 14 15 17 18 20 22 24 27 31 35 38 40 41 43 44 45 46 45 45 44 44 45 48 51 53 53 53 54 57 61 68 74 77 76 73 71 68 62 57 55 53 53 53 51 51 50 49 49 50 52 54 54 55 54 53 51
30 28 27 26 24 21 18 16 14 14 13 13 13 12 12 12 12 11 11 11 11 11 11 13 16 16 14 14 14 14 14 16 17 19 20 22 24 27 31 34 37 40 42 43 44 45 46 46 46 47 48 49 50 50 50 52 57 64 71 78 81 79 75 71 70 67 62 58 58 61 63 64 65 62 60 58 57 56 55 54 53 52 52 51 51 50
35 29 25 22 18 16 14 13 13 13 13 12 12 12 12 12 11 11 12 12 12 11 12 15 17 17 17 16 17 17 18 19 20 21 23 25 28 30 33 36 39 42 44 46 47 47 46 48 49 48 47 49 52 56 62 70 78 83 84 81 76 71 68 68 68 68 71 75 77 79 79 81 81 79 74 68 64 60 56 52 49 46 42 39 36 34
23 19 16 15 14 14 13 13 13 13 13 12 12 12 12 13 13 13 14 14 15 15 15 18 20 21 22 21 22 24 24 26 27 28 29 30 32 34 38 41 44 46 48 49 49 48 48 50 52 54 58 65 73 79 85 87 86 81 75 71 69 69 71 74 78 84 89 93 94 95 95 92 87 80 72 64 57 50 44 37 30 23 18 16 13 11
17 15 14 14 13 13 13 13 13 13 13 13 14 15 16 16 17 17 18 19 20 19 20 23 25 28 28 27 27 29 30 31 32 33 34 35 38 40 42 44 47 50 51 50 49 51 56 63 70 77 83 88 92 93 90 84 77 73 72 73 77 82 87 91 94 96 98 100 102 101 95 85 76 67 57 47 37 27 19 13 9 6 5 4 4 4
15 14 14 14 13 14 14 14 15 15 16 17 18 19 20 20 21 20 20 22 23 24 26 28 30 32 31 29 28 29 29 31 32 34 37 39 42 44 47 50 53 55 56 58 63 70 79 87 92 96 99 99 95 88 82 78 78 80 84 89 94 98 99 98 99 101 102 100 95 86 77 66 55 42 30 21 13 8 5 4 4 4 4 4 4 4
14 14 14 15 15 16 17 18 18 18 19 19 20 22 21 21 21 19 19 22 24 25 27 28 29 30 28 28 29 30 32 34 36 39 41 45 48 51 56 60 63 66 71 78 87 94 97 100 101 102 101 95 87 82 82 85 90 95 98 100 100 99 99 101 102 99 92 84 75 65 54 40 25 14 8 6 5 4 5 5 5 6 6 6 6 6
14 16 17 17 18 18 18 17 17 18 18 18 20 22 22 23 23 21 20 23 25 26 28 29 31 31 31 33 38 41 44 45 47 50 53 57 62 66 69 74 80 86 92 97 100 101 100 100 101 99 93 88 86 88 93 97 100 100 99 99 100 102 102 98 91 83 74 64 53 38 24 13 6 5 5 5 5 6 6 7 7 7 7 7 7 7
15 16 17 17 17 17 18 18 18 19 20 21 23 25 26 28 31 29 28 29 31 33 35 37 40 41 42 44 48 52 55 58 61 65 69 73 77 82 86 91 96 99 101 101 100 100 100 98 95 90 89 92 95 98 100 100 99 99 101 102 100 95 88 81 74 65 52 35 20 10 6 5 6 6 6 7 8 8 8 8 7 8 8 8 8 8
13 14 16 18 19 20 21 22 23 23 24 24 25 27 29 32 35 35 34 33 36 38 37 41 47 49 51 53 55 59 64 68 74 78 84 90 93 97 100 100 101 101 100 100 100 100 98 93 91 93 97 99 100 100 100 100 101 102 98 91 83 78 73 66 52 34 18 8 5 6 7 8 8 8 8 8 8 8 8 8 8 9 9 9 9 8
13 14 19 21 22 23 23 23 23 23 24 24 23 26 28 30 33 35 34 33 38 40 36 39 47 50 56 58 58 67 75 79 86 93 97 101 101 101 101 100 100 100 100 100 100 99 96 96 98 100 100 100 100 101 101 100 94 85 77 74 73 70 57 37 18 7 4 5 7 8 8 8 8 8 7 7 6 7 8 8 9 10 10 10 9 9
17 16 20 23 24 24 24 24 24 25 25 25 26 27 28 28 31 35 36 35 39 42 38 40 46 49 56 61 65 76 86 91 98 102 102 102 100 100 100 100 100 100 100 100 100 99 99 99 100 100 100 102 101 98 91 81 73 71 76 75 64 46 24 9 5 6 7 8 8 9 9 8 7 6 6 6 7 7 9 11 11 12 11 10 10 9
20 16 18 24 26 27 27 26 27 29 29 30 30 30 31 33 34 37 40 41 46 50 47 46 50 52 59 70 80 89 95 100 103 102 101 101 100 100 100 100 100 100 100 100 100 100 100 100 102 102 100 95 87 78 70 70 78 84 75 53 29 13 7 6 7 8 9 9 10 8 7 6 5 6 6 7 9 11 13 14 13 13 12 11 10 10
24 20 19 26 30 30 30 29 30 32 32 33 33 34 35 36 39 41 43 49 57 61 60 58 56 58 67 79 90 96 99 102 102 100 100 100 100 100 100 100 100 100 100 99 99 101 101 101 98 90 82 74 69 70 78 88 86 65 37 16 7 7 8 8 9 10 10 9 7 6 6 6 6 7 9 11 14 16 16 16 15 14 12 12 11 11
28 26 23 27 31 33 34 33 32 33 34 35 37 37 38 39 42 43 43 52 65 72 74 72 64 60 70 83 93 99 101 101 100 100 100 100 100 100 100 100 100 99 100 101 101 98 93 85 76 70 69 71 78 88 90 77 49 22 9 7 8 8 8 10 11 10 8 7 7 7 6 6 8 11 14 17 18 18 18 18 17 15 14 13 13 13
30 28 26 27 30 33 36 35 34 35 37 39 40 41 42 43 44 45 44 51 67 77 84 89 79 64 69 86 98 102 101 100 100 100 100 100 100 100 100 100 100 101 100 95 88 79 72 68 68 72 78 86 92 87 64 33 12 7 8 8 8 9 10 11 10 8 7 7 7 7 7 10 13 17 19 20 21 21 21 21 19 18 16 15 15 15
32 29 27 26 28 32 34 34 34 36 38 41 44 45 46 46 48 51 51 53 62 73 86 99 93 74 74 92 101 101 100 100 100 100 100 100 100 100 101 100 97 91 83 75 69 67 69 74 79 85 90 90 78 52 24 9 7 8 8 8 9 10 10 9 8 8 8 7 8 10 12 15 18 21 22 23 24 24 25 24 22 20 18 17 17 17
32 30 27 24 26 32 35 35 35 36 40 45 49 50 50 51 53 56 60 63 65 68 82 101 100 87 87 98 102 100 100 100 100 100 100 100 100 99 93 86 79 72 68 69 73 80 86 90 91 90 83 67 41 18 8 8 9 8 8 10 11 10 10 9 8 8 9 10 12 15 18 21 23 25 25 25 26 28 28 27 24 21 19 18 18 17
32 32 30 27 27 29 31 32 32 34 40 49 54 55 56 56 58 60 64 70 70 68 82 100 102 96 99 101 100 100 100 99 100 100 100 97 91 82 75 70 69 72 78 85 92 97 97 90 82 72 54 32 14 8 9 9 9 9 11 11 12 11 10 9 9 10 12 15 19 22 26 28 29 29 29 29 29 30 30 27 24 22 20 19 18 17
32 34 35 35 34 32 31 30 31 32 37 49 58 62 62 61 64 67 67 72 77 79 90 101 102 100 101 100 99 100 101 101 99 96 90 82 74 71 73 77 83 89 94 98 97 90 78 66 56 43 26 14 9 9 9 10 11 13 13 13 12 10 10 11 12 14 17 22 26 30 32 33 34 33 32 31 31 31 31 27 24 22 20 19 18 17
32 36 39 40 40 40 36 33 37 41 43 51 59 65 69 69 71 74 76 83 92 97 100 102 101 100 99 100 100 100 100 96 89 82 77 75 77 82 88 92 95 96 94 88 75 60 51 45 36 23 12 9 10 11 12 14 15 15 15 13 11 11 12 14 16 19 24 28 31 34 35 36 36 34 33 34 34 33 30 26 23 22 20 19 18 17
33 37 40 38 40 45 41 37 47 56 56 60 65 70 75 76 77 82 88 96 102 103 101 99 99 100 101 101 98 94 89 83 79 79 82 86 90 94 97 98 93 86 76 61 48 43 43 35 21 12 9 11 14 15 16 17 17 16 14 12 12 14 15 17 21 24 27 29 32 35 37 37 36 35 36 37 35 32 29 25 23 21 19 19 18 17
37 38 36 31 34 48 51 49 58 66 69 72 75 77 79 81 85 90 96 102 103 101 101 101 101 101 98 93 88 84 83 83 86 91 94 96 98 98 94 84 73 61 49 39 38 42 37 23 13 11 13 15 16 17 18 18 17 15 13 14 15 17 19 22 25 26 27 30 34 37 39 38 38 38 39 38 35 31 26 23 22 20 19 19 17 16
35 32 29 22 26 45 57 59 67 76 79 82 83 83 84 86 90 95 98 101 103 102 101 99 96 92 89 86 87 89 92 95 98 100 100 97 91 80 66 52 43 37 32 32 38 38 25 14 12 13 14 16 18 19 19 18 16 15 15 17 19 21 24 26 27 28 29 33 38 41 41 41 42 42 41 36 32 27 24 22 21 20 19 18 15 13
28 23 23 19 22 41 55 62 74 81 82 85 87 88 92 94 96 100 101 101 100 98 95 93 91 91 91 93 96 99 100 99 99 96 87 74 59 46 36 30 28 28 30 35 36 28 17 13 13 14 17 20 21 21 20 18 17 17 18 21 23 26 29 30 29 29 33 39 44 45 44 45 45 43 38 32 28 25 23 22 21 19 18 15 11 10
20 19 22 21 22 36 49 56 66 73 77 87 95 97 99 101 101 102 102 100 99 97 96 96 96 98 99 99 99 99 96 92 85 72 56 42 33 29 26 25 25 28 32 34 29 19 14 14 16 19 22 24 24 23 21 18 18 20 22 25 28 31 32 31 30 33 41 47 49 49 49 48 44 38 33 29 26 24 23 21 20 17 14 11 9 8
20 20 24 25 22 29 40 45 54 68 80 92 100 101 102 103 103 103 102 101 102 101 101 101 101 101 100 99 96 92 85 73 58 43 33 28 26 26 25 25 27 31 34 29 22 16 15 16 19 23 26 26 25 23 20 20 22 24 27 30 32 33 31 31 35 43 51 53 52 52 50 44 38 33 29 27 25 23 22 19 16 13 10 9 9 9
18 17 20 23 18 20 30 34 43 65 84 93 97 101 103 103 102 101 101 101 101 102 103 103 102 102 99 95 90 80 65 50 38 32 30 29 28 28 28 29 31 32 31 25 20 18 17 20 24 27 29 28 25 23 23 25 27 29 33 35 34 32 32 38 48 55 57 56 54 50 44 37 33 30 27 26 24 22 19 15 12 10 9 9 10 11
9 7 10 14 12 14 20 22 31 53 76 94 102 103 102 101 101 101 101 102 103 102 102 103 102 100 96 88 77 60 44 37 36 39 39 36 35 35 34 34 34 33 30 25 22 22 22 26 30 31 30 28 26 26 26 28 31 34 36 34 32 35 43 53 59 60 58 56 50 44 38 33 30 28 26 25 22 18 15 12 10 9 9 11 13 14
4 3 4 6 7 9 10 14 29 51 76 98 105 102 101 101 101 100 96 96 100 101 101 104 104 99 88 74 57 44 40 43 48 50 48 45 44 42 41 40 38 35 33 29 26 25 27 30 32 31 30 29 28 28 29 32 35 35 34 35 41 51 59 63 63 61 56 50 43 38 34 31 29 27 25 22 18 15 12 10 10 10 12 14 15 16
3 3 4 3 5 6 4 6 18 38 67 95 102 101 103 102 100 99 92 89 95 101 103 105 99 87 73 59 49 48 51 53 55 58 57 54 51 48 46 44 41 37 34 30 28 28 29 31 32 32 32 31 31 32 34 35 36 36 42 52 60 66 67 66 62 57 49 43 38 35 33 30 28 25 22 18 15 12 10 10 11 13 14 16 16 15
3 4 4 4 4 5 4 5 6 14 43 79 94 98 102 101 100 103 99 95 100 103 101 96 85 72 62 54 52 56 59 58 62 68 67 62 58 53 48 45 41 37 34 30 29 29 29 31 32 33 34 34 36 37 36 38 45 54 64 70 71 70 67 63 57 49 42 39 37 34 31 29 26 22 18 15 12 11 12 12 14 16 17 16 15 14
4 4 4 4 5 5 5 6 7 12 31 58 77 90 101 103 100 101 102 101 100 95 87 79 72 67 64 61 61 66 68 68 72 77 78 74 68 61 55 49 42 36 34 32 30 30 30 31 33 35 37 38 39 41 47 58 69 75 76 74 72 69 63 55 48 43 40 38 35 32 30 26 22 18 14 13 12 13 14 15 17 18 17 16 15 15
4 5 4 4 5 6 5 6 8 14 27 46 65 81 93 99 100 102 102 96 87 80 77 76 76 76 77 77 78 82 86 86 87 89 90 88 83 77 71 62 50 41 36 34 33 33 33 35 37 39 43 47 54 64 73 79 80 78 75 74 70 63 54 48 44 42 40 36 33 31 28 23 18 15 14 14 15 16 17 18 18 17 17 18 19 21
4 5 5 6 6 6 7 7 8 10 20 37 52 62 72 85 94 97 96 90 84 85 89 90 89 89 90 93 95 99 102 102 99 98 98 97 95 93 87 75 63 54 48 44 42 42 43 47 52 59 68 76 83 85 84 81 78 77 75 69 60 53 48 46 44 41 38 35 32 29 24 19 16 15 16 17 17 18 20 20 18 18 20 23 25 29
5 5 6 6 7 7 7 8 8 9 15 24 37 51 70 88 96 95 94 96 98 100 100 98 97 97 99 101 102 103 103 102 100 100 100 100 101 99 92 83 74 69 65 63 63 65 70 76 83 91 95 94 90 84 81 81 80 76 68 59 52 50 48 46 43 39 37 34 30 26 21 17 17 18 18 19 19 21 21 19 18 22 27 30 32 36
5 6 6 7 7 8 8 8 9 10 12 18 36 63 87 99 102 101 101 102 104 104 102 101 102 102 102 103 102 101 101 100 100 100 101 102 102 100 94 89 85 83 83 85 88 92 95 97 99 98 94 89 85 85 84 80 73 66 58 54 52 51 48 45 41 39 36 32 28 23 19 18 20 20 21 21 23 23 21 18 21 28 34 37 37 38
6 6 7 8 9 9 10 10 10 11 11 17 38 68 91 101 103 104 102 101 102 102 102 102 104 105 104 103 101 101 102 102 101 101 102 103 103 101 99 98 97 97 99 102 103 102 100 97 94 92 90 90 89 86 79 70 64 60 57 55 53 49 47 44 41 38 35 30 25 21 19 21 22 21 23 25 26 24 21 20 25 33 39 42 41 39
7 7 8 9 10 11 12 12 12 12 12 15 26 49 74 94 102 103 100 100 101 102 102 103 103 103 103 101 100 102 104 103 102 103 103 102 102 102 102 103 104 104 105 104 103 100 96 93 92 93 94 93 86 78 70 64 61 61 58 56 52 48 45 43 41 38 34 28 23 21 21 23 23 23 27 29 27 24 21 23 31 37 40 44 44 41
8 9 9 11 12 12 13 13 13 14 14 14 17 29 49 71 86 91 94 97 99 100 100 98 97 98 100 100 100 101 102 101 101 101 101 100 101 103 103 105 106 105 103 101 98 95 93 94 96 97 93 85 76 69 65 64 64 62 59 54 50 46 45 44 41 37 31 26 23 22 23 24 23 25 30 32 28 25 25 29 35 38 40 46 47 43
10 11 11 13 14 14 14 15 16 16 16 15 15 19 29 46 63 75 82 87 90 92 92 93 94 95 96 95 94 94 96 98 98 100 101 102 102 104 104 104 103 99 97 95 94 94 95 97 96 91 82 74 69 67 67 67 66 62 57 53 50 48 47 45 41 36 30 25 23 23 25 25 24 27 32 33 29 30 34 41 45 41 39 47 51 46
12 13 13 14 16 17 17 17 18 19 20 19 17 17 19 27 42 56 65 71 77 81 85 88 88 88 87 87 88 90 95 98 100 101 103 103 102 101 99 97 95 94 94 95 97 98 97 93 87 79 73 70 69 69 69 68 64 61 57 54 52 50 49 46 41 34 28 25 24 25 27 26 25 29 34 33 32 37 43 48 52 47 42 46 50 46
14 15 16 17 18 19 19 19 19 20 22 22 22 21 19 18 24 34 45 57 66 72 77 81 83 85 86 87 89 92 96 100 100 100 100 98 95 93 92 91 92 94 96 99 100 97 92 86 80 75 72 71 71 71 70 67 64 61 59 56 55 54 52 47 39 32 27 26 27 28 29 28 27 32 36 33 34 46 55 56 55 50 44 46 51 46
17 19 21 21 21 23 23 24 24 24 25 26 26 26 25 22 20 21 28 39 49 57 64 71 76 81 85 86 86 86 87 89 90 89 90 89 87 87 88 91 94 97 100 100 97 92 88 83 79 76 75 75 74 73 71 68 65 63 61 60 59 57 53 46 37 31 29 28 29 31 31 29 28 34 39 33 32 48 65 70 68 61 48 44 50 50
21 23 24 25 26 28 29 30 30 30 30 30 31 31 31 30 27 24 24 27 32 38 47 57 64 70 73 73 70 69 70 74 78 80 84 86 85 85 90 94 97 99 100 97 94 91 88 84 81 79 79 78 77 74 71 69 67 65 64 64 63 60 54 44 35 31 30 30 33 34 33 29 29 35 40 36 32 42 60 71 78 77 63 49 47 50
Wind_Speed
37 36 35 35 36 37 37 38 39 39 39 39 40 40 40 41 40 41 44 45 45 46 47 47 48 49 50 50 51 51 51 52 53 53 54 55 56 56 55 55 55 54 53 52 51 51 51 51 51 52 53 54 55 55 54 54 54 54 54 54 55 55 55 55 55 56 57 57 57 58 58 59 60 61 62 63 64 65 66 67 67 67 67 67 67 67
35 34 34 35 36 36 37 38 38 39 39 40 41 41 42 42 42 43 45 45 46 47 48 49 50 51 51 51 52 53 53 53 54 55 55 56 56 56 55 54 53 52 51 50 49 49 50 51 52 53 53 54 54 54 54 54 53 53 54 54 54 55 55 56 56 57 57 58 59 59 60 61 61 62 62 63 64 66 67 69 69 69 69 69 69 69
33 33 34 35 36 36 37 37 38 39 40 41 42 42 43 43 44 45 46 47 48 49 50 51 52 53 53 52 54 54 54 55 55 56 56 56 55 54 53 52 51 50 49 49 48 49 50 51 52 53 53 53 53 53 53 53 53 53 53 54 54 55 56 57 58 59 59 60 61 62 62 63 63 63 63 63 63 64 66 68 70 71 71 71 71 71
33 34 35 36 36 37 37 38 39 39 40 41 42 43 44 44 46 47 47 49 50 50 51 52 53 54 54 54 55 55 55 56 56 55 55 54 53 52 52 51 50 49 49 48 48 49 49 50 51 51 51 51 51 52 53 53 54 54 54 55 55 56 58 59 60 60 61 62 63 63 64 64 64 63 62 62 62 63 65 66 68 70 71 72 72 71
33 34 35 35 36 36 37 38 39 40 41 42 43 44 45 46 48 48 49 50 51 51 52 54 55 56 55 55 55 55 55 56 55 54 54 53 52 51 50 50 49 48 48 48 48 48 48 49 49 49 50 51 51 52 53 54 55 55 55 56 57 58 59 60 61 62 63 64 64 64 65 65 65 65 64 64 64 64 65 66 67 69 71 72 73 74
32 33 34 35 36 36 38 39 40 41 42 43 44 46 46 47 49 50 50 51 51 52 53 54 55 56 56 55 55 55 55 55 54 53 52 51 50 49 49 48 47 47 47 47 47 47 47 48 48 49 50 51 52 53 54 55 56 56 57 58 59 59 60 61 62 63 64 64 65 66 66 66 66 67 67 67 67 67 67 68 69 70 72 73 75 76
32 33 34 35 37 38 39 41 42 43 43 44 45 47 48 48 49 50 51 52 52 52 52 52 53 55 55 55 54 54 54 53 52 51 50 49 48 48 47 46 46 46 46 46 47 47 48 49 49 50 52 53 54 55 55 56 57 58 58 59 60 60 60 61 62 63 64 65 66 67 68 69 70 70 70 70 70 70 71 71 72 72 74 75 77 78
33 34 36 37 38 40 41 42 43 44 45 46 46 47 48 49 50 50 50 51 52 52 51 50 50 52 53 53 53 52 52 51 49 49 49 48 47 47 47 47 47 46 47 47 48 49 50 50 51 52 53 54 55 56 56 57 58 59 59 60 60 60 60 61 62 64 66 67 69 70 71 72 74 75 74 74 74 75 75 75 75 75 76 76 78 79
34 35 37 38 39 40 41 42 44 45 46 46 47 48 48 49 49 49 50 50 50 51 50 48 48 50 51 51 50 50 50 49 49 49 48 48 47 48 48 47 48 48 49 50 50 51 52 52 53 54 54 55 55 56 57 58 59 59 59 59 59 60 61 63 64 66 68 70 71 73 75 76 77 78 78 78 78 78 78 78 77 77 77 77 78 79
34 36 37 38 39 41 42 43 44 45 45 46 46 47 47 47 47 48 49 49 49 51 49 47 47 48 49 50 49 49 49 49 49 49 49 49 49 49 49 49 50 50 51 51 52 53 53 53 54 54 55 56 57 57 58 58 58 58 58 59 60 61 63 65 67 68 70 72 74 76 78 79 79 79 79 79 80 79 79 78 77 77 77 77 77 78
35 37 38 40 40 41 42 43 43 43 44 45 45 45 46 47 47 48 48 48 49 50 48 47 47 47 49 50 50 50 50 50 50 50 50 50 50 51 51 51 51 52 52 53 53 53 53 54 55 56 56 57 57 57 57 57 57 57 58 60 62 63 65 67 69 71 73 75 77 79 79 79 80 80 80 79 78 77 77 76 76 76 76 76 77 77
36 37 38 38 39 39 40 40 41 43 43 44 45 46 47 48 48 49 49 48 48 49 48 47 48 49 51 52 51 51 51 51 50 50 51 51 51 51 52 52 52 52 53 53 54 54 55 56 56 56 56 56 56 56 56 56 57 59 61 63 64 65 67 69 72 74 75 77 78 78 78 78 78 77 77 76 75 75 74 74 74 74 74 74 75 75
34 35 35 36 37 38 39 41 42 44 45 46 46 47 48 49 49 50 50 49 48 48 48 49 50 51 52 53 52 51 51 51 51 51 51 51 51 51 52 52 52 53 54 54 54 55 56 56 56 56 56 55 55 55 56 58 60 62 64 65 67 68 70 73 74 75 76 77 77 77 76 75 73 72 72 72 72 73 73 73 73 73 74 74 74 75
32 33 35 36 38 40 42 43 44 45 46 46 46 46 47 48 49 50 49 49 50 50 50 51 52 53 53 52 51 50 50 50 51 51 51 51 51 51 52 52 53 53 54 55 55 55 56 56 55 55 55 55 56 57 59 61 63 65 67 68 70 71 73 74 75 76 76 76 75 73 71 70 69 69 69 70 71 71 72 73 74 75 76 76 76 77
35 35 37 39 39 40 41 42 44 44 45 45 45 46 46 47 49 50 50 51 51 51 52 51 52 53 53 52 51 51 51 51 51 51 51 51 51 52 52 52 53 54 54 55 55 56 56 55 55 55 56 57 59 60 62 64 66 68 69 71 72 72 73 74 74 74 72 71 69 67 67 67 68 68 69 70 71 72 73 74 75 76 77 78 78 78
38 37 37 38 38 38 40 41 42 43 44 45 45 46 47 47 49 50 51 51 52 52 52 52 51 52 52 53 53 53 52 52 51 51 51 51 51 52 52 53 53 54 54 54 54 55 55 54 55 57 59 60 62 63 65 67 68 69 70 70 71 72 72 72 70 68 66 65 65 66 67 67 68 69 70 71 72 73 74 75 76 76 77 78 78 79
37 34 34 35 36 37 39 41 42 44 45 46 47 47 48 48 49 50 51 52 52 53 53 52 52 53 53 54 54 53 53 52 52 52 52 52 52 52 52 53 53 53 52 52 53 53 53 55 57 59 61 63 65 66 67 68 68 69 69 70 70 70 69 67 65 64 64 65 66 67 68 69 70 71 72 73 74 75 76 76 77 77 77 78 79 79
36 34 33 35 37 38 40 42 44 45 46 47 48 48 49 49 49 50 51 52 52 53 54 53 53 54 53 54 54 53 53 53 53 53 52 52 52 52 52 51 51 51 51 50 51 52 54 57 59 61 63 65 66 66 66 67 68 69 69 70 68 66 64 63 63 63 64 65 66 68 69 71 72 73 74 75 76 76 77 77 78 78 78 79 80 80
38 38 36 36 39 41 43 45 46 46 47 48 48 48 48 49 49 49 51 52 52 53 54 54 54 54 54 53 53 53 53 53 53 53 53 52 52 51 50 49 48 48 49 50 51 54 56 59 61 63 63 64 65 66 66 67 68 69 69 66 64 62 61 62 63 64 65 67 68 69 71 72 73 74 75 76 76 77 78 78 79 79 79 80 81 81
41 42 40 40 42 44 45 46 47 47 47 47 47 47 48 48 48 49 50 51 51 52 53 54 54 54 54 53 53 53 53 53 52 52 52 52 51 49 48 47 46 47 50 52 54 56 58 60 61 62 63 64 66 67 68 68 68 67 64 61 60 60 61 62 63 65 66 68 69 70 71 73 74 74 75 76 77 78 79 79 80 80 80 80 81 82
42 44 43 43 44 45 46 48 48 48 48 47 47 47 47 48 48 49 49 49 49 50 52 53 54 53 54 53 53 52 52 51 51 51 51 50 48 47 46 46 48 50 53 55 56 58 59 61 62 64 65 66 67 68 69 68 65 61 59 58 59 61 62 63 65 66 68 69 70 71 72 73 74 75 76 77 78 79 80 80 81 81 81 81 82 82
44 46 47 47 47 47 48 49 50 50 50 49 47 47 47 47 47 48 48 47 47 49 50 51 52 53 52 52 51 51 50 50 50 49 48 46 45 45 46 48 51 53 55 56 57 59 61 63 65 66 67 68 69 69 66 62 59 57 58 60 61 62 63 65 66 67 69 70 71 72 74 74 75 76 77 78 79 80 81 82 82 82 83 83 84 84
47 49 50 50 51 51 52 52 52 52 51 49 47 46 46 46 46 47 48 48 47 48 49 49 51 52 51 49 49 49 48 48 46 45 44 44 45 47 50 52 54 55 57 58 60 62 64 66 67 68 69 69 68 65 61 58 57 58 60 61 62 64 65 66 67 68 70 71 73 73 74 75 76 77 79 80 81 82 82 83 83 84 85 85 85 85
50 52 53 53 53 53 53 53 53 53 52 49 47 46 46 45 45 46 46 47 48 48 48 48 50 51 49 47 47 47 46 45 44 44 45 46 48 50 52 54 56 57 59 61 62 64 66 67 68 70 70 67 63 59 57 57 58 60 61 62 63 64 66 67 68 69 71 72 73 74 75 76 77 79 80 81 82 83 84 84 85 86 87 87 87 87
52 54 56 57 57 56 55 55 55 54 52 49 46 45 45 44 44 45 45 46 47 47 46 47 48 48 47 46 45 44 44 44 45 46 48 49 51 53 55 56 58 60 61 63 64 65 67 69 70 70 67 62 58 57 57 58 59 60 62 63 64 65 66 67 69 70 71 72 73 74 76 78 79 81 82 83 84 85 85 86 87 88 89 89 88 88
54 55 57 59 60 59 60 60 59 57 54 50 47 44 44 44 44 45 45 46 46 46 44 44 46 45 44 43 43 43 44 46 47 49 51 52 54 56 57 59 61 62 63 64 65 67 68 69 68 65 61 58 56 56 57 58 59 60 62 63 64 65 66 68 70 71 72 73 75 77 78 80 82 83 84 85 86 86 87 88 89 90 90 90 90 90
55 56 58 59 58 57 58 59 57 56 55 52 48 45 45 45 45 45 45 44 44 43 42 41 41 42 42 42 43 45 46 48 49 51 53 55 56 58 59 61 62 63 65 66 68 69 68 66 62 59 56 55 55 56 57 58 60 61 62 63 65 66 68 69 71 72 73 75 77 79 82 83 84 85 86 86 87 88 88 90 91 91 91 91 92 92
57 57 58 58 56 54 55 55 54 53 53 51 50 48 46 46 46 45 43 42 41 41 40 39 39 41 43 44 45 47 48 50 51 53 55 57 58 59 61 63 64 66 68 69 69 68 64 60 56 55 54 54 55 56 57 59 60 62 63 65 66 68 70 71 72 74 76 78 80 83 84 85 85 86 87 88 88 89 90 92 92 92 93 93 94 95
58 58 58 58 54 51 52 53 51 51 51 50 50 49 49 48 46 44 42 40 39 39 39 39 41 43 44 45 46 48 50 52 54 55 57 58 60 62 64 66 68 69 69 69 67 63 57 54 53 53 53 54 55 57 58 60 61 63 64 66 68 70 71 73 75 77 79 81 84 85 86 86 86 87 88 89 90 91 92 93 93 94 95 96 96 97
59 58 58 57 54 50 50 51 50 50 50 50 51 51 50 49 47 45 43 40 39 38 39 40 42 43 45 46 48 50 52 54 56 58 59 61 63 66 68 69 69 69 68 66 61 56 53 52 52 52 53 55 57 58 59 60 62 64 65 67 69 71 73 75 77 79 82 84 86 86 86 86 87 88 89 90 92 93 93 94 95 96 97 97 98 97
58 57 57 57 54 50 50 50 50 50 51 51 51 50 49 47 46 45 43 40 39 39 40 41 42 44 46 48 51 53 55 56 58 61 63 65 67 68 68 68 67 66 64 60 55 51 51 51 51 53 54 56 57 58 59 61 63 65 67 69 71 73 75 77 80 82 84 86 86 86 87 87 88 89 91 92 93 94 95 96 97 98 98 98 96 93
57 56 55 55 53 51 50 50 50 51 51 50 48 47 47 46 45 43 42 41 41 41 41 43 45 47 49 51 54 56 58 60 62 64 65 65 66 66 66 66 64 62 58 53 50 49 50 51 52 53 55 56 57 59 61 63 65 67 69 71 73 75 78 80 82 84 86 86 86 86 87 88 89 91 92 94 95 95 97 98 98 99 98 96 92 88
55 53 53 53 52 50 50 50 50 51 50 48 47 47 47 46 44 42 41 42 42 43 44 46 49 51 54 56 58 59 61 63 64 64 64 64 64 65 65 63 61 57 52 49 48 48 50 51 53 54 56 57 59 61 63 65 67 69 72 74 76 78 81 83 85 86 86 86 86 87 88 89 91 92 93 95 96 97 98 99 99 98 95 91 87 83
51 50 50 51 51 50 50 50 50 50 49 48 48 48 47 45 44 43 42 43 44 45 47 50 53 56 58 60 61 62 63 64 64 63 64 64 65 65 63 61 58 53 50 48 48 49 51 53 54 56 57 59 61 63 65 67 69 71 74 76 79 81 83 85 86 86 85 86 87 88 89 91 92 93 94 95 97 97 98 98 97 94 91 87 83 79
49 50 50 51 52 52 52 52 52 51 50 49 49 49 48 46 46 45 44 44 46 48 51 54 57 59 61 62 64 64 64 63 63 64 64 64 63 61 59 57 54 51 49 49 50 51 53 54 56 57 59 61 63 65 67 69 71 74 77 80 81 83 84 85 85 85 85 86 88 89 91 92 93 94 95 96 97 97 96 95 92 89 85 82 78 75
50 51 51 52 53 54 54 54 54 53 52 50 49 49 49 48 48 48 48 47 50 53 56 58 60 61 63 64 65 65 63 62 62 63 62 60 59 56 54 52 51 50 50 51 51 52 54 56 58 59 61 63 65 67 69 72 74 77 79 81 82 83 83 83 83 84 85 87 88 90 91 92 93 94 95 96 96 95 93 90 87 84 80 77 73 71
51 52 53 54 55 56 57 56 55 55 53 51 50 51 52 51 52 53 54 54 55 57 58 60 62 64 65 65 64 63 61 60 60 60 59 57 55 53 52 51 51 51 52 52 53 55 56 58 60 62 64 66 68 70 72 75 77 78 79 80 80 80 80 81 82 84 86 88 89 91 92 93 94 94 95 95 94 91 88 86 83 79 76 73 69 67
52 54 55 57 58 58 59 58 58 57 54 52 53 54 54 53 54 56 58 58 57 59 60 63 65 65 65 63 62 61 61 60 59 59 58 56 54 53 53 53 53 53 54 54 55 57 59 61 63 65 66 68 70 72 74 75 76 77 77 77 77 77 78 80 83 85 86 88 90 91 92 94 94 95 94 93 90 87 84 81 78 75 72 69 66 62
54 55 56 58 59 59 60 60 59 58 56 54 54 54 53 53 55 56 58 58 59 61 63 64 64 64 63 62 61 61 61 60 59 58 58 56 55 55 54 54 54 54 55 56 57 58 60 62 64 66 68 69 70 72 73 74 74 75 75 75 76 77 79 81 84 85 87 88 90 91 93 94 94 93 91 88 85 82 80 77 74 71 68 65 61 57
54 56 57 58 59 60 60 60 59 57 55 54 53 53 53 53 54 56 59 61 61 63 64 63 62 62 62 62 61 62 63 62 61 59 58 57 56 56 55 55 55 55 55 56 57 58 60 62 64 65 67 68 69 70 71 72 72 73 74 75 77 79 81 83 84 86 87 89 90 91 92 93 92 89 87 84 80 77 75 73 71 67 63 59 55 52
54 56 58 59 60 61 61 61 60 58 55 54 54 54 54 53 54 56 60 62 62 62 62 62 62 62 62 62 61 61 62 62 61 59 57 56 56 55 54 54 54 55 55 56 57 58 59 61 63 64 66 67 68 69 70 70 71 72 74 76 78 80 82 83 84 86 87 88 89 90 90 89 87 85 82 79 76 73 72 71 68 63 57 53 51 48
55 57 59 60 62 63 63 63 63 61 58 56 56 55 54 55 56 58 60 61 62 62 61 61 61 61 60 60 60 60 59 58 57 56 55 54 53 53 53 53 53 54 55 56 57 58 59 60 62 64 65 66 67 68 68 69 71 73 75 77 79 80 82 83 84 85 86 87 88 88 86 84 82 80 77 74 72 70 69 67 63 57 52 50 48 45
56 58 60 61 63 65 66 67 67 65 63 61 58 56 56 56 58 60 60 60 61 61 60 60 59 59 58 57 56 56 55 54 53 52 52 52 51 52 52 53 53 54 54 55 56 58 59 60 62 63 65 66 66 67 68 70 72 75 76 78 79 80 82 83 84 85 85 86 86 84 82 79 77 74 72 70 69 68 66 63 58 52 48 47 46 43
56 58 60 62 64 66 67 69 69 68 66 63 60 58 57 57 58 60 60 59 58 58 58 57 56 56 55 53 52 51 50 49 49 49 50 50 51 52 52 53 53 54 54 56 57 58 59 60 62 63 64 65 66 68 70 72 73 75 76 78 79 80 81 82 83 84 84 84 83 80 77 75 72 69 69 68 67 66 63 59 54 47 44 45 45 42
56 58 60 62 64 66 67 68 68 68 67 65 62 59 57 56 57 58 58 57 56 56 55 54 53 53 52 51 50 49 49 49 49 49 50 51 51 52 52 53 54 54 55 57 58 59 60 61 61 62 64 66 68 70 72 73 74 75 76 78 79 80 81 81 82 82 83 81 79 76 73 69 66 66 67 67 65 63 60 56 50 44 41 42 43 41
57 59 61 62 63 64 65 66 67 67 67 67 65 61 58 56 55 56 56 55 55 54 53 52 51 51 51 51 50 50 49 49 49 50 51 51 51 52 53 54 55 56 57 58 58 59 60 60 61 63 65 68 70 71 73 74 75 76 77 78 79 80 80 80 80 80 80 78 75 73 69 64 62 63 64 64 62 59 56 53 49 43 39 39 40 39
57 59 60 61 62 63 64 65 67 67 66 67 66 63 59 57 55 54 54 54 53 52 52 52 52 51 51 51 51 50 50 50 50 51 52 52 53 54 54 55 56 56 57 57 58 58 59 60 62 64 66 68 70 72 73 74 75 77 78 79 79 79 79 79 79 78 77 74 72 69 64 61 60 60 61 60 57 53 51 50 48 43 38 37 37 36
57 59 60 61 62 63 64 65 66 66 66 67 67 64 61 58 55 53 53 52 52 52 52 51 51 51 51 51 51 51 51 52 52 52 53 54 54 54 54 55 55 56 56 57 58 59 60 61 63 65 67 69 71 72 73 74 75 77 78 78 78 77 77 77 77 76 74 71 69 65 61 58 58 59 59 57 53 49 47 47 46 41 37 35 34 32
58 59 61 62 62 63 64 65 66 67 66 67 67 66 64 61 57 54 53 52 52 52 51 51 51 51 51 51 51 51 51 52 52 52 53 53 53 53 54 54 55 55 56 57 58 60 61 63 65 67 69 70 71 71 73 74 76 77 78 77 77 76 75 75 74 73 71 68 65 61 58 56 57 57 57 54 49 45 44 47 47 41 35 33 33 31
59 60 62 63 63 64 65 66 67 68 68 68 68 67 65 63 61 58 56 54 53 53 52 52 52 52 52 52 51 51 51 51 51 52 52 53 54 54 54 55 55 56 57 58 59 61 63 65 67 68 69 69 70 71 73 74 76 76 77 76 75 75 74 73 71 69 68 65 62 59 55 54 55 55 55 52 46 40 39 43 48 46 39 32 31 31
60 61 62 64 65 66 66 66 68 68 69 68 68 68 67 65 63 61 59 57 55 54 53 53 53 52 52 52 52 52 52 52 52 53 53 54 55 55 55 56 56 57 58 59 60 62 64 66 67 68 68 69 70 72 73 74 75 76 75 75 74 73 73 72 69 67 65 63 60 57 54 53 53 53 52 50 46 39 35 35 41 46 45 38 31 29
Wind_Direction
284 284 284 284 284 286 286 286 287 287 287 287 287 287 288 289 290 289 288 289 290 290 290 289 288 287 286 287 288 288 288 288 288 287 287 288 288 288 288 287 287 287 287 286 285 284 283 283 282 281 280 279 278 278 277 276 276 276 276 277 278 279 279 280 280 280 280 280 281 281 281 282 282 283 284 284 285 285 285 284 284 284 283 283 282 282
284 284 283 283 284 285 286 287 288 287 287 287 287 288 289 290 290 289 289 290 289 289 289 289 288 287 287 288 288 288 288 288 288 288 288 288 288 288 288 288 288 287 287 286 284 283 283 283 282 281 280 279 278 277 276 276 276 276 277 278 279 280 280 280 280 281 281 282 282 282 282 283 283 284 284 284 285 285 286 286 286 285 285 284 284 283
285 284 284 284 285 286 287 287 287 286 286 287 287 288 289 289 289 289 289 289 289 289 289 289 288 287 288 289 288 288 289 288 288 289 289 289 288 288 288 288 288 287 286 285 284 283 283 282 281 280 279 278 277 276 276 276 277 278 279 280 281 281 282 282 282 283 283 284 284 284 284 284 284 284 284 284 284 284 284 285 285 285 285 284 284 283
286 285 285 285 286 286 287 286 285 286 286 287 288 289 289 289 289 289 289 289 289 289 289 289 288 288 289 288 288 289 289 289 289 289 289 289 288 288 288 288 288 287 286 285 284 283 282 281 280 279 277 277 277 277 277 278 279 280 282 283 283 283 283 284 284 285 285 285 285 286 286 286 285 285 285 284 284 284 283 284 284 285 285 285 284 283
288 287 287 287 287 287 287 286 287 287 288 289 289 289 289 289 289 289 289 289 289 290 290 290 289 289 289 289 289 290 290 290 290 290 290 290 290 290 290 289 289 288 286 285 284 283 282 280 279 278 278 278 279 279 280 281 283 284 285 285 284 284 285 285 286 287 287 287 287 287 287 288 288 289 289 288 288 288 287 287 287 287 287 287 286 285
290 289 289 289 288 288 288 287 288 288 288 288 288 289 289 289 289 289 289 289 289 290 290 290 290 290 289 289 290 290 291 291 291 291 291 291 292 291 291 290 288 287 286 284 283 282 281 280 279 279 280 281 281 282 283 284 285 286 286 285 285 285 286 286 287 288 288 288 288 288 288 289 290 290 291 291 291 291 290 290 289 289 289 289 288 288
290 290 289 289 289 289 288 288 288 289 289 288 288 289 289 289 290 290 290 290 290 290 290 290 291 290 290 290 291 291 292 292 292 292 292 293 292 292 290 289 287 286 285 284 283 282 282 282 282 282 282 283 284 284 285 285 286 286 286 286 286 287 287 288 289 290 290 290 290 291 292 293 293 292 292 292 292 292 292 291 291 290 290 290 289 289
290 289 289 289 289 289 289 289 289 290 290 290 290 290 291 291 291 291 291 291 291 290 290 292 291 291 292 292 293 293 293 293 294 294 294 293 292 291 290 288 287 286 285 284 284 284 284 285 284 284 285 285 285 285 286 286 286 286 286 287 288 289 290 291 292 292 292 293 294 295 295 295 295 295 295 294 294 293 293 292 291 291 290 290 289 289
290 289 289 289 289 289 290 290 291 291 292 292 292 292 292 292 292 293 292 292 292 291 292 293 293 293 293 294 294 294 294 295 295 295 294 293 292 291 289 288 287 287 286 286 286 286 287 286 286 286 286 286 286 286 286 286 286 287 288 289 290 291 292 292 293 293 294 295 295 295 295 295 295 295 295 294 294 294 293 293 292 292 291 290 290 290
291 291 292 292 292 293 293 293 294 294 294 295 294 294 294 294 294 294 294 294 294 294 294 295 294 294 294 294 295 295 296 296 295 294 293 292 292 291 290 289 288 288 288 288 288 288 288 288 287 287 286 286 286 287 287 287 287 288 289 290 291 292 292 292 293 293 293 293 293 293 293 294 294 293 293 294 294 294 294 294 294 294 293 292 292 291
294 294 295 295 295 296 296 296 296 296 296 296 296 297 296 296 296 295 295 296 295 296 296 296 295 295 294 295 295 296 296 296 295 294 293 292 291 291 290 290 290 290 289 289 290 290 290 289 288 288 288 288 288 288 288 288 289 290 290 291 291 291 291 291 291 291 291 291 292 292 292 292 293 293 294 295 295 295 295 295 295 294 294 293 292 292
297 297 297 297 298 298 298 299 299 299 299 299 299 299 299 298 298 297 297 297 297 298 298 297 296 295 295 296 296 297 296 295 295 294 293 292 292 292 292 292 292 291 291 292 292 292 291 291 291 291 291 291 290 290 290 290 290 291 291 290 289 288 288 288 289 290 290 291 291 291 292 293 294 294 295 295 296 296 296 296 295 295 295 294 294 293
299 299 300 300 301 301 301 302 301 301 301 301 302 302 301 301 300 299 299 299 299 299 298 298 297 296 296 296 297 297 296 296 295 295 294 294 294 294 294 293 293 293 293 293 293 293 292 292 292 292 291 291 291 292 291 291 290 289 288 286 286 286 286 287 288 289 290 290 291 292 293 294 294 295 295 295 295 296 296 296 296 297 297 296 296 296
299 301 302 302 303 303 303 303 302 302 302 302 303 303 303 303 301 301 301 300 300 299 299 298 297 296 297 297 297 297 296 296 296 295 295 295 295 295 294 294 294 294 294 294 294 293 292 291 291 291 292 292 292 291 290 288 286 285 284 284 285 286 287 288 289 289 290 291 292 293 293 293 293 294 294 295 295 295 296 297 297 298 298 298 298 298
301 304 305 305 306 306 305 305 304 304 304 304 304 304 303 303 302 301 301 301 300 300 299 298 297 297 298 298 297 297 296 296 296 295 295 294 295 295 294 294 294 294 294 293 292 291 290 291 291 292 292 290 289 288 286 284 283 283 283 285 286 287 288 289 290 291 292 292 293 293 293 293 293 294 295 295 296 296 297 297 298 298 298 298 299 299
304 308 310 309 310 310 309 308 307 307 306 305 305 304 303 303 302 301 301 300 300 299 299 299 298 298 298 298 297 297 297 296 296 295 295 295 295 295 294 294 294 293 293 291 290 289 289 291 291 290 288 286 284 283 282 282 283 284 286 287 288 289 290 291 292 292 292 292 292 292 293 294 295 295 296 296 297 297 298 298 298 298 298 298 298 299
308 312 315 315 315 314 312 310 309 309 308 307 306 305 305 304 302 302 301 301 300 299 299 299 298 298 297 297 297 297 296 296 296 296 296 296 296 295 295 294 293 292 291 289 288 288 289 289 287 285 283 281 281 281 283 285 286 288 289 289 290 291 292 292 291 291 291 291 292 293 294 295 296 296 297 297 298 298 299 299 299 299 299 298 298 298
313 314 317 318 316 315 313 311 310 310 309 308 307 306 305 304 303 302 301 300 300 299 298 298 297 297 296 296 297 297 296 297 297 298 298 297 297 296 295 294 292 290 289 288 287 287 285 283 281 280 280 281 283 285 287 289 290 290 291 292 292 292 291 290 290 290 290 291 292 293 294 295 296 297 298 298 299 299 300 300 300 300 300 300 299 299
316 315 318 320 319 317 315 313 312 311 310 308 308 306 305 304 303 302 301 301 300 299 299 298 297 297 297 297 297 297 298 299 299 299 298 297 297 295 294 291 289 288 286 285 283 281 279 279 280 282 284 286 288 289 290 291 292 292 293 292 291 290 289 289 290 291 292 293 294 295 296 297 298 299 300 300 301 301 301 301 301 301 301 300 300 300
320 318 321 324 323 320 319 316 314 313 311 309 308 307 306 304 303 302 301 301 300 299 299 298 298 298 298 298 299 299 300 300 300 299 298 297 295 293 291 288 286 285 283 281 280 280 281 282 285 287 288 289 290 291 292 293 293 293 292 290 289 289 290 291 292 293 294 295 296 297 298 299 300 301 301 301 301 301 301 301 301 301 301 300 300 299
322 321 322 324 324 323 322 319 317 315 313 311 310 308 307 305 303 302 301 301 300 299 298 298 298 299 299 299 300 300 300 300 298 297 295 294 292 289 287 285 282 281 280 281 283 285 287 288 289 290 291 292 292 293 293 293 292 291 289 289 289 290 291 292 294 295 296 297 298 299 300 301 301 301 301 301 301 301 301 301 301 301 301 301 300 299
322 321 321 322 323 324 323 320 318 317 315 314 313 310 308 305 304 302 301 300 299 297 297 298 298 298 299 300 300 300 299 297 295 293 292 289 287 284 282 281 281 282 284 287 289 290 291 291 291 292 292 293 293 293 293 291 289 288 288 288 289 291 292 293 295 296 297 299 300 301 301 301 302 301 301 301 301 301 300 300 301 301 301 301 301 300
322 321 320 321 322 323 322 320 318 316 315 315 313 311 308 306 305 303 302 301 299 298 299 298 297 298 300 300 299 297 296 293 291 289 286 283 281 281 282 284 286 288 290 291 292 292 292 292 292 293 293 293 293 292 290 288 287 287 288 289 291 292 294 295 296 298 299 300 301 301 301 302 302 301 301 301 301 301 301 301 301 301 302 301 301 300
322 321 319 318 319 321 321 318 316 316 315 315 314 311 309 307 306 304 302 301 300 300 300 298 297 299 300 299 296 294 292 289 287 285 283 283 284 285 287 289 290 291 292 292 292 292 292 292 293 293 292 292 290 288 286 286 287 288 289 291 292 294 295 297 298 299 300 300 301 301 301 301 302 301 301 301 301 301 301 301 301 302 302 302 301 300
322 321 319 318 318 318 317 316 315 315 315 315 314 311 309 307 305 303 302 300 300 301 300 298 297 298 298 296 293 291 288 286 285 286 286 288 289 290 291 291 292 292 292 292 292 292 292 292 292 292 290 288 286 285 285 286 288 289 291 292 294 295 296 298 298 299 300 301 301 301 302 302 302 302 302 301 301 301 301 301 302 302 302 302 301 300
321 322 320 319 320 319 318 317 316 316 315 314 314 312 309 307 305 304 302 301 301 301 301 299 297 296 294 291 289 287 287 288 289 289 290 291 291 292 292 292 293 292 292 292 292 292 293 293 291 289 287 286 285 286 287 288 289 291 292 294 295 296 297 298 299 300 300 301 302 303 303 303 303 303 302 302 302 302 302 302 302 302 302 302 301 300
320 321 320 320 321 320 318 317 317 316 314 314 314 312 310 309 307 306 304 303 302 302 301 298 294 291 289 287 287 288 289 290 291 291 292 292 292 293 293 292 292 292 293 293 294 294 294 292 290 287 286 286 286 288 289 290 291 293 294 295 296 297 298 299 300 301 301 302 303 304 304 304 304 303 303 302 302 302 302 303 303 303 302 302 301 301
319 320 320 320 321 320 318 316 316 315 314 314 313 312 311 310 309 308 306 305 303 301 298 293 289 287 287 288 290 290 291 291 291 291 291 292 292 292 293 293 294 294 295 295 296 295 293 290 287 286 286 287 288 289 291 292 293 295 296 296 297 298 299 300 301 302 303 304 305 305 305 305 304 304 303 303 303 303 303 304 304 303 303 303 302 302
320 320 320 320 321 320 317 317 316 315 314 314 314 313 312 311 311 309 307 305 302 297 293 289 288 288 289 290 290 290 291 291 291 292 292 293 294 295 295 296 296 297 297 296 296 294 291 287 286 286 287 288 289 290 292 293 295 296 296 297 297 298 300 301 302 303 304 305 306 306 305 305 305 304 304 304 304 304 305 305 305 304 304 304 303 302
321 321 320 320 321 320 318 317 317 316 316 315 315 314 313 312 311 310 308 305 301 296 292 291 290 290 291 291 291 291 292 293 294 295 296 297 297 297 298 298 298 298 297 296 294 291 288 286 286 286 287 288 290 291 293 294 295 295 296 297 298 299 301 302 304 305 306 306 306 306 306 306 306 305 305 305 305 306 306 306 306 305 305 304 304 303
322 322 321 321 321 321 319 319 319 318 317 317 316 314 313 313 312 310 308 305 302 298 295 294 293 292 292 292 293 294 295 296 297 298 299 299 299 299 299 299 299 298 297 294 291 288 286 286 286 287 288 289 291 293 294 295 295 296 297 298 300 301 303 304 305 306 307 307 307 307 307 307 307 306 306 307 307 307 307 307 307 306 306 305 304 302
323 323 323 322 322 323 321 321 320 319 318 318 317 315 314 312 312 310 308 306 303 299 296 294 293 293 293 294 295 296 298 299 300 300 301 301 301 301 301 301 300 298 295 291 287 285 286 287 287 288 290 291 293 294 295 295 296 297 299 300 302 304 305 306 307 308 308 308 308 308 308 308 308 308 308 308 308 308 308 308 307 307 306 305 304 302
325 326 326 325 326 326 325 324 323 322 321 320 317 315 314 313 312 311 308 305 302 299 297 296 296 297 297 298 299 300 301 302 302 302 303 303 304 304 304 303 302 299 294 290 287 288 289 289 290 291 292 294 295 296 296 297 298 300 301 303 304 306 307 308 308 309 309 309 309 309 308 309 309 309 309 309 309 309 309 308 308 307 307 305 303 301
331 332 331 330 330 330 328 327 326 324 323 321 318 316 315 314 312 310 307 305 302 300 300 300 300 300 301 301 302 303 304 304 305 306 307 308 308 308 307 305 303 299 295 293 292 292 292 293 293 294 295 296 297 297 298 300 301 303 304 306 307 308 309 309 310 310 309 309 309 309 310 310 310 310 310 310 310 310 309 309 308 308 306 305 303 301
336 336 335 333 332 332 330 329 327 325 324 322 320 318 316 314 312 310 308 306 304 302 302 302 302 303 304 304 305 306 307 309 310 311 311 311 310 309 307 305 303 300 297 296 295 295 295 295 295 295 296 297 298 299 301 303 304 305 307 308 308 309 310 310 310 310 310 310 310 310 310 311 311 311 311 310 310 310 310 309 309 307 306 305 303 301
340 339 339 337 335 334 333 331 330 327 326 324 320 317 316 314 311 309 308 306 305 305 305 305 305 306 306 307 309 310 311 312 313 312 312 312 311 309 308 305 303 301 299 298 296 296 295 295 296 296 297 299 300 302 304 305 306 307 308 309 310 310 310 310 310 310 311 311 311 311 311 311 311 311 311 311 311 311 310 310 309 308 306 305 303 301
345 344 344 342 340 338 337 335 332 328 325 323 319 317 316 315 313 312 311 309 309 309 308 308 307 308 309 310 311 312 312 312 313 313 313 313 312 310 308 306 304 302 301 299 298 297 297 298 298 299 301 302 303 305 305 306 307 308 309 310 310 311 310 310 311 311 311 311 312 312 312 312 312 312 312 312 312 312 311 310 310 309 307 306 304 301
351 350 348 347 345 342 339 337 333 329 327 323 320 318 318 317 316 314 312 312 311 310 309 308 309 311 312 312 312 312 312 313 314 314 314 313 311 310 309 308 306 305 303 302 301 300 300 301 301 302 303 304 305 306 306 308 308 309 310 310 310 311 311 311 312 312 313 313 313 313 313 313 313 314 314 314 313 313 312 312 311 310 308 307 305 302
354 353 352 350 348 346 343 339 336 332 328 324 320 319 317 315 314 313 312 312 311 310 310 311 313 314 314 314 314 314 314 314 315 315 314 313 311 310 309 309 309 308 306 305 304 303 303 303 303 304 304 305 306 307 308 309 310 310 311 311 311 312 312 313 313 314 314 315 315 315 315 315 315 315 315 315 315 315 314 313 313 311 309 308 306 304
356 357 356 355 352 350 347 344 340 334 329 325 322 319 315 313 313 314 313 312 312 312 314 316 316 317 317 316 316 316 315 315 315 315 314 313 312 311 311 311 311 310 309 308 307 306 306 305 305 306 306 307 308 309 310 311 311 312 312 312 313 314 314 315 315 315 316 316 316 316 317 317 317 317 316 316 316 316 315 315 314 312 311 309 307 305
359 360 360 359 357 354 351 349 345 340 335 330 325 321 318 316 316 315 313 314 316 318 319 319 319 318 318 318 317 317 316 316 316 315 315 314 313 313 313 313 313 312 312 311 310 309 309 308 308 309 309 310 311 312 312 313 313 313 314 314 315 315 316 316 317 317 317 317 317 318 318 318 318 317 317 317 317 317 317 316 315 313 312 310 308 306
1 1 2 2 1 359 356 354 351 347 342 336 331 327 325 322 320 319 319 320 321 321 321 320 320 320 320 319 318 317 317 317 317 317 316 315 315 315 315 314 314 314 314 313 312 312 312 311 311 312 312 312 313 313 314 315 315 315 315 316 316 317 317 317 318 318 318 319 319 319 319 319 319 318 318 318 319 318 318 317 315 314 314 312 309 307
2 2 1 2 1 1 359 357 354 351 347 342 338 334 331 328 325 324 325 325 324 323 323 324 323 323 322 321 321 320 320 320 320 319 318 317 317 317 316 316 316 316 315 315 314 314 314 314 314 313 314 314 315 315 316 317 317 317 317 317 318 318 319 319 319 319 320 320 321 321 320 320 319 319 319 320 320 320 319 318 316 316 315 312 309 309
2 1 1 1 1 1 0 358 356 353 349 346 342 338 335 333 331 329 329 329 328 328 328 328 327 327 327 327 327 326 325 324 322 321 320 319 319 319 319 318 318 318 317 316 316 316 316 316 316 316 316 316 317 318 318 318 318 318 318 319 319 320 320 320 320 321 321 322 322 321 321 321 320 320 321 321 322 321 320 318 316 317 317 312 310 310
1 1 1 1 1 1 360 358 357 354 352 349 345 342 339 337 334 332 332 332 332 332 332 332 332 332 332 332 332 331 329 327 325 323 323 323 323 322 322 321 320 320 319 318 318 318 318 318 318 318 318 319 319 319 319 319 320 320 320 320 320 321 321 321 321 322 322 322 322 322 322 321 321 322 323 323 323 323 320 317 316 318 317 312 310 311
0 0 1 1 1 0 359 358 358 357 354 352 349 347 343 340 337 336 335 335 334 334 334 334 334 334 334 334 333 332 331 330 328 327 326 326 325 324 323 322 321 321 320 320 320 320 320 320 320 320 320 320 321 321 321 321 321 321 321 321 322 322 322 322 322 323 323 323 323 323 323 322 323 324 324 325 325 323 320 317 317 319 318 314 312 312
360 360 0 360 359 359 359 358 358 358 356 354 353 351 347 343 341 339 339 338 337 336 335 335 335 334 334 334 334 333 332 331 330 328 327 326 326 325 324 323 323 322 322 322 322 322 322 322 322 321 322 322 322 322 322 322 322 322 322 323 323 323 323 324 324 324 324 324 324 324 323 324 325 326 326 326 325 323 319 316 316 319 319 316 314 314
359 359 359 359 359 359 359 358 358 358 357 355 355 354 351 348 345 342 341 341 340 340 338 337 336 335 335 335 334 333 332 330 329 328 327 327 326 326 326 325 324 324 323 323 323 323 323 323 323 323 323 323 323 323 323 323 323 323 323 324 324 324 325 325 325 325 325 325 325 325 325 326 327 327 328 328 326 323 319 315 315 318 319 317 315 313
358 358 358 358 358 358 358 357 358 358 358 356 356 355 354 352 350 347 344 343 343 342 341 340 339 338 337 336 335 334 333 331 331 330 329 329 329 328 328 327 326 325 325 324 324 324 324 324 324 324 324 324 324 324 324 324 325 325 324 325 325 325 326 326 326 326 326 326 326 327 327 327 328 329 330 329 327 324 320 317 316 317 320 320 318 316
357 357 357 357 357 357 357 356 356 357 357 356 355 355 355 354 353 351 349 346 344 343 342 340 339 338 337 337 336 336 335 334 333 333 332 331 330 330 329 328 327 326 326 325 325 326 326 326 326 326 325 325 325 325 326 326 326 326 326 326 326 326 327 327 327 327 327 327 328 328 328 329 329 330 330 331 329 326 323 321 318 318 321 322 322 321
356 356 355 355 356 356 356 356 355 355 355 355 354 354 354 354 353 352 350 348 346 345 342 340 339 338 337 337 336 336 335 335 334 333 332 331 330 329 329 328 327 327 327 326 326 326 327 327 327 327 327 327 326 327 327 327 327 327 327 327 327 327 328 328 328 329 329 329 329 329 330 330 330 331 332 332 330 327 325 324 320 319 320 322 324 324